Wahoo, NE

4:46 AM CST on February 27, 2017 (GMT -0600)
Wahoo Municipal

Weather History for KAHQ - November, 2014

Change the Weather History Date:

Thursday, November 6, 2014

  Actual Average Record
Temperature  
Mean Temperature 42 °F -  
Max Temperature 52 °F 52 °F 78 °F (1980)
Min Temperature 31 °F 31 °F 13 °F (1993)
Degree Days  
Heating Degree Days 24    
Moisture  
Dew Point 27 °F    
Average Humidity 60    
Maximum Humidity 82    
Minimum Humidity 32    
Precipitation  
Precipitation 0.00 in - - ()
Sea Level Pressure  
Sea Level Pressure 30.32 in    
Wind  
Wind Speed 10 mph (NW)    
Max Wind Speed 17 mph    
Max Gust Speed 28 mph    
Visibility 10 miles    
Events      
Averages and records for this station are not official NWS values.
T = Trace of Precipitation, MM = Missing Value Source: NWS Daily Summary

Daily Weather History Graph

Daily Weather History Graph

Search for Another Location

Airport or City:

Trip Planner

Search our weather history database for the weather conditions in past years. The results will help you decide how hot, cold, wet, or windy it might be!

Date:

Astronomy

Nov. 06, 2014 Rise Set
Actual Time 7:03 AM CST 5:15 PM CST
Civil Twilight 6:34 AM CST 5:44 PM CST
Nautical Twilight 6:01 AM CST 6:17 PM CST
Astronomical Twilight 5:29 AM CST 6:49 PM CST
Moon 5:24 PM CST (11/6) 6:36 AM CST (11/6)
Length of Visible Light 11h 10m
Length of Day
10h 12m
Full, 100% of the Moon is Illuminated
Nov 6
Full
Nov 6
Full
Nov 14
Last Quarter
Nov 22
New
Nov 29
First Quarter

Hourly Weather History & Observations

Time (CST) Temp. Windchill Dew Point Humidity Pressure Visibility Wind Dir Wind Speed Gust Speed Precip Events Conditions
12:15 AM 47.1 °F - 28.8 °F 49% 30.17 in 10.0 mi NW 12.7 mph 24.2 mph N/A   Clear
12:35 AM 45.9 °F 39.7 °F 29.1 °F 52% 30.19 in 10.0 mi NW 13.8 mph 17.3 mph N/A   Clear
12:55 AM 44.6 °F 38.8 °F 29.1 °F 55% 30.19 in 10.0 mi NW 11.5 mph 18.4 mph N/A   Clear
1:15 AM 43.0 °F 37.2 °F 29.1 °F 58% 30.21 in 10.0 mi NNW 10.4 mph - N/A   Clear
1:35 AM 43.0 °F 35.1 °F 29.8 °F 60% 30.20 in 10.0 mi NNW 17.3 mph 23.0 mph N/A   Clear
1:55 AM 43.2 °F 35.6 °F 30.6 °F 61% 30.20 in 10.0 mi NNW 16.1 mph 27.6 mph N/A   Clear
2:15 AM 42.6 °F 35.2 °F 30.9 °F 63% 30.22 in 10.0 mi NNW 15.0 mph 25.3 mph N/A   Clear
2:35 AM 41.9 °F 34.0 °F 30.9 °F 65% 30.22 in 10.0 mi NNW 16.1 mph 27.6 mph N/A   Clear
2:55 AM 41.0 °F 33.1 °F 30.7 °F 67% 30.24 in 10.0 mi NW 15.0 mph 23.0 mph N/A   Clear
3:15 AM 40.3 °F 31.9 °F 30.7 °F 69% 30.25 in 10.0 mi NW 16.1 mph 23.0 mph N/A   Clear
3:35 AM 39.6 °F 31.0 °F 30.9 °F 71% 30.27 in 10.0 mi NW 16.1 mph 21.9 mph N/A   Clear
3:55 AM 39.0 °F 31.4 °F 30.7 °F 72% 30.28 in 10.0 mi NNW 12.7 mph 18.4 mph N/A   Clear
4:15 AM 38.3 °F 30.9 °F 30.6 °F 74% 30.30 in 10.0 mi NNW 11.5 mph 19.6 mph N/A   Clear
4:35 AM 37.6 °F 30.0 °F 30.2 °F 75% 30.30 in 10.0 mi NNW 11.5 mph 21.9 mph N/A   Clear
4:55 AM 35.6 °F 29.2 °F 29.7 °F 79% 30.31 in 10.0 mi NNW 8.1 mph - N/A   Clear
5:15 AM 36.0 °F 28.0 °F 29.7 °F 78% 30.32 in 10.0 mi NNW 11.5 mph 18.4 mph N/A   Clear
5:35 AM 35.1 °F 25.5 °F 29.3 °F 80% 30.33 in 10.0 mi NNW 15.0 mph 18.4 mph N/A   Clear
5:55 AM 34.9 °F 26.6 °F 29.1 °F 79% 30.34 in 10.0 mi NNW 11.5 mph - N/A   Clear
6:15 AM 34.0 °F 27.2 °F 28.9 °F 82% 30.35 in 10.0 mi NNW 8.1 mph - N/A   Clear
6:35 AM 35.1 °F 26.9 °F 29.3 °F 80% 30.36 in 10.0 mi NNW 11.5 mph 17.3 mph N/A   Mostly Cloudy
6:55 AM 35.6 °F 29.2 °F 29.3 °F 78% 30.37 in 10.0 mi NW 8.1 mph - N/A   Overcast
7:15 AM 36.5 °F 29.2 °F 29.5 °F 76% 30.38 in 10.0 mi NW 10.4 mph 17.3 mph N/A   Overcast
7:35 AM 36.5 °F 28.7 °F 29.1 °F 75% 30.38 in 10.0 mi NNW 11.5 mph 18.4 mph N/A   Overcast
7:55 AM 37.2 °F 31.2 °F 29.5 °F 74% 30.39 in 10.0 mi NW 8.1 mph - N/A   Overcast
8:15 AM 37.4 °F 28.9 °F 29.3 °F 73% 30.40 in 10.0 mi NNW 13.8 mph 21.9 mph N/A   Overcast
8:55 AM 38.5 °F 30.3 °F 29.1 °F 69% 30.41 in 10.0 mi NNW 13.8 mph 20.7 mph N/A   Overcast
9:15 AM 38.8 °F 32.6 °F 29.1 °F 68% 30.41 in 10.0 mi NNW 9.2 mph 17.3 mph N/A   Overcast
9:35 AM 39.6 °F 33.5 °F 28.9 °F 66% 30.42 in 10.0 mi NNW 9.2 mph 16.1 mph N/A   Overcast
9:55 AM 40.8 °F 34.1 °F 29.3 °F 64% 30.41 in 10.0 mi NNW 11.5 mph 17.3 mph N/A   Mostly Cloudy
10:15 AM 42.6 °F 36.3 °F 29.5 °F 60% 30.42 in 10.0 mi North 11.5 mph - N/A   Scattered Clouds
10:35 AM 43.2 °F 37.4 °F 28.8 °F 57% 30.42 in 10.0 mi NNW 10.4 mph 16.1 mph N/A   Clear
10:55 AM 43.9 °F 38.8 °F 28.8 °F 55% 30.42 in 10.0 mi NNW 9.2 mph 16.1 mph N/A   Clear
11:15 AM 44.6 °F 38.8 °F 28.8 °F 54% 30.42 in 10.0 mi NW 11.5 mph - N/A   Clear
11:35 AM 46.0 °F 41.9 °F 28.6 °F 51% 30.41 in 10.0 mi NW 8.1 mph - N/A   Clear
11:55 AM 46.8 °F - 28.8 °F 50% 30.40 in 10.0 mi North 4.6 mph - N/A   Clear
12:15 PM 47.5 °F - 27.9 °F 47% 30.40 in 10.0 mi NNW 5.8 mph 16.1 mph N/A   Clear
12:35 PM 48.6 °F - 28.4 °F 46% 30.39 in 10.0 mi NW 5.8 mph - N/A   Clear
12:55 PM 49.5 °F - 28.2 °F 44% 30.39 in 10.0 mi NW 6.9 mph - N/A   Clear
1:15 PM 50.2 °F - 28.0 °F 42% 30.39 in 10.0 mi WNW 6.9 mph - N/A   Clear
1:35 PM 51.1 °F - 27.1 °F 40% 30.38 in 10.0 mi NW 9.2 mph - N/A   Clear
1:55 PM 51.3 °F - 25.7 °F 37% 30.37 in 10.0 mi NNW 6.9 mph - N/A   Clear
2:15 PM 52.2 °F - 25.7 °F 36% 30.37 in 10.0 mi NW 6.9 mph - N/A   Clear
2:35 PM 52.2 °F - 24.4 °F 34% 30.36 in 10.0 mi North 5.8 mph - N/A   Clear
2:55 PM 52.3 °F - 23.5 °F 33% 30.35 in 10.0 mi NNW 4.6 mph - N/A   Clear
3:15 PM 51.8 °F - 23.7 °F 33% 30.35 in 10.0 mi NNW 6.9 mph - N/A   Clear
3:35 PM 52.3 °F - 23.5 °F 33% 30.35 in 10.0 mi NNW 4.6 mph - N/A   Clear
3:55 PM 52.0 °F - 23.0 °F 32% 30.34 in 10.0 mi Calm Calm - N/A   Clear
4:15 PM 51.8 °F - 22.6 °F 32% 30.34 in 10.0 mi North 3.5 mph - N/A   Clear
4:35 PM 50.9 °F - 22.8 °F 33% 30.33 in 10.0 mi Calm Calm - N/A   Clear
4:55 PM 49.1 °F - 23.2 °F 36% 30.32 in 10.0 mi Calm Calm - N/A   Clear
5:15 PM 45.9 °F - 25.7 °F 45% 30.31 in 7.0 mi Calm Calm - N/A   Clear
5:35 PM 45.5 °F - 24.6 °F 44% 30.31 in 10.0 mi Calm Calm - N/A   Clear
5:55 PM 43.7 °F - 24.3 °F 46% 30.31 in 10.0 mi Calm Calm - N/A   Clear
6:15 PM 43.3 °F - 24.8 °F 48% 30.31 in 10.0 mi Calm Calm - N/A   Clear
6:35 PM 41.5 °F - 25.5 °F 53% 30.31 in 10.0 mi Calm Calm - N/A   Clear
6:55 PM 37.9 °F 35.5 °F 25.7 °F 61% 30.31 in 10.0 mi South 3.5 mph - N/A   Clear
7:35 PM 35.8 °F - 25.5 °F 66% 30.29 in 10.0 mi Calm Calm - N/A   Clear
7:55 PM 36.0 °F 32.1 °F 25.5 °F 66% 30.29 in 10.0 mi South 4.6 mph - N/A   Clear
8:15 PM 35.6 °F 31.7 °F 25.5 °F 67% 30.28 in 10.0 mi South 4.6 mph - N/A   Clear
8:35 PM 34.3 °F 31.4 °F 25.5 °F 70% 30.27 in 10.0 mi South 3.5 mph - N/A   Clear
8:55 PM 34.0 °F 31.0 °F 25.7 °F 72% 30.27 in 10.0 mi South 3.5 mph - N/A   Clear
9:15 PM 33.8 °F 29.6 °F 25.7 °F 72% 30.26 in 10.0 mi SSE 4.6 mph - N/A   Clear
9:35 PM 33.8 °F 30.8 °F 25.7 °F 72% 30.26 in 10.0 mi South 3.5 mph - N/A   Clear
9:55 PM 33.4 °F 30.4 °F 25.5 °F 73% 30.25 in 10.0 mi SSE 3.5 mph - N/A   Clear
10:15 PM 32.0 °F 26.4 °F 25.2 °F 76% 30.24 in 10.0 mi SSE 5.8 mph - N/A   Clear
10:35 PM 32.0 °F 27.5 °F 25.7 °F 78% 30.23 in 10.0 mi South 4.6 mph - N/A   Clear
10:55 PM 32.0 °F 27.5 °F 25.7 °F 78% 30.23 in 10.0 mi SSE 4.6 mph - N/A   Clear
11:15 PM 32.0 °F - 25.5 °F 77% 30.23 in 10.0 mi Calm Calm - N/A   Clear
11:35 PM 31.5 °F 28.1 °F 24.8 °F 76% 30.22 in 10.0 mi SSE 3.5 mph - N/A   Clear
11:55 PM 31.8 °F 26.2 °F 25.9 °F 79% 30.21 in 10.0 mi South 5.8 mph - N/A   Clear